Terminal Aerodrome Forecast
Issued by NWS Quad Cities IA IL

Home | Current Version | Previous Version | Text Only | Print | Product List | Glossary On
Versions: 1 2 3 4 5 6 7 8 9 10 11 12 13 14 15 16 17 18 19 20 21 22 23 24 25 26 27 28 29 30 31 32 33
000
FTUS43 KDVN 010700 AAA
TAFDBQ
TAF AMD
KDBQ 010712Z 0107/0206 VRB04KT 6SM -SHRA VCTS BKN035CB OVC080
      TEMPO 0107/0109 4SM -SHRA BKN030
     FM010900 16010G16KT P6SM SCT030 BKN150
     FM011400 24012KT P6SM SCT025 BKN035
     FM011800 28012KT P6SM BKN040
     FM012300 30006KT P6SM SCT250=

USA.gov is the U.S. government's official web portal to all federal, state and local government web resources and services.